Temp
70 58 56 63 67 68 66 63 63 70 77 74 69 71 72 75 75 72 73 72 73 70 70 71 71 70 68 67 66 66 66 65 64 63 62 60 60 62 62 63 64 63 63 64
63 57 67 71 71 68 66 63 62 69 76 74 71 69 72 73 73 73 73 72 70 66 69 70 67 67 66 66 66 66 66 65 65 63 63 63 62 63 63 63 64 64 65 64
59 64 72 70 67 65 65 62 62 63 71 74 67 61 66 73 76 77 76 73 70 68 67 67 68 64 65 66 66 66 66 66 66 66 64 62 62 62 61 62 61 62 65 65
62 71 69 66 65 68 60 71 70 68 64 53 66 46 60 67 69 73 73 68 68 69 69 68 67 64 65 66 67 68 66 66 67 66 64 63 60 59 61 62 62 61 65 64
60 66 66 65 66 71 66 74 71 69 64 57 58 50 55 66 65 70 69 69 69 70 68 67 67 67 67 68 66 66 66 66 67 66 66 63 62 62 62 61 61 61 62 63
66 74 71 69 75 75 77 71 69 67 59 44 55 53 53 59 66 68 72 72 70 68 68 68 68 68 67 66 66 66 65 65 67 67 66 63 62 63 61 59 59 59 61 61
64 65 72 76 69 74 73 61 48 39 40 39 60 54 57 66 70 72 70 68 68 69 68 67 67 66 65 64 64 66 65 64 67 67 67 63 62 62 60 59 59 59 59 59
53 51 67 75 70 66 66 62 46 37 38 47 62 52 61 70 73 74 73 70 69 67 68 67 66 66 66 66 64 66 65 64 67 66 67 63 63 62 60 59 60 60 59 59
54 55 73 75 76 74 66 58 64 53 52 47 54 62 66 70 71 72 70 69 65 64 64 66 66 65 65 64 64 65 65 66 66 66 67 63 64 63 62 61 60 60 60 61
60 52 69 74 77 76 71 69 55 49 39 35 50 53 54 62 66 69 67 65 64 64 65 66 67 65 64 65 65 65 66 66 66 67 67 66 68 64 63 62 62 61 61 61
67 56 60 71 66 65 66 59 57 55 51 40 37 47 63 64 66 67 67 68 66 67 66 66 66 66 65 65 65 65 66 66 66 67 67 70 69 66 65 63 62 63 61 62
68 55 53 60 74 76 67 62 58 53 46 51 48 49 68 67 69 68 69 69 66 67 66 68 67 66 65 64 65 65 66 66 66 67 68 69 68 66 64 64 64 63 62 63
68 59 45 55 61 72 66 68 62 57 54 49 46 49 69 71 70 72 68 69 69 67 66 68 68 66 66 65 66 66 66 66 68 67 67 68 66 65 63 64 63 64 63 63
71 58 56 49 56 66 61 66 67 58 49 51 56 58 62 67 68 69 69 69 69 69 69 69 68 66 66 67 68 68 68 68 67 67 66 65 65 66 65 66 64 65 65 63
67 58 58 64 67 68 68 67 67 62 59 56 57 59 65 67 68 69 70 70 71 70 69 69 68 67 65 66 67 69 68 68 67 66 65 65 66 67 67 64 68 66 67 65
55 57 62 58 68 67 66 69 69 68 64 62 63 62 69 71 73 70 72 72 72 72 73 72 71 70 68 69 67 70 69 68 67 66 65 67 68 68 71 66 68 65 65 67
47 50 56 52 63 64 58 66 68 69 68 66 60 64 70 69 73 71 72 74 74 74 75 74 73 72 70 71 69 67 68 68 67 67 68 68 68 68 70 69 66 64 63 62
47 46 57 52 56 44 61 74 75 70 70 68 68 70 71 71 71 76 78 75 76 77 77 75 75 73 71 71 68 68 69 68 68 67 69 69 68 68 68 66 64 63 61 61
55 49 46 46 50 57 63 70 70 64 62 71 68 73 75 75 74 72 79 79 76 78 78 77 76 74 71 73 69 71 69 69 70 68 69 71 69 67 66 64 63 63 62 60
59 56 48 45 41 43 58 71 76 70 55 70 71 69 70 71 62 66 75 79 76 78 79 77 75 76 74 74 72 71 68 69 69 70 72 73 69 68 65 63 62 63 63 63
50 50 46 43 41 54 67 74 75 57 56 69 71 69 68 66 67 72 75 77 79 79 78 78 77 75 75 74 73 72 67 70 72 73 74 72 67 68 65 65 63 63 63 63
43 40 45 42 42 44 71 72 60 63 64 71 69 70 69 72 75 74 74 78 79 79 78 79 77 75 74 75 75 71 68 71 73 73 74 71 66 74 69 67 63 63 62 61
39 41 39 42 51 57 63 59 69 71 70 72 71 70 73 73 74 76 75 77 79 78 80 80 78 74 75 75 77 72 71 72 75 71 69 69 69 67 67 66 62 61 60 60
42 46 42 44 54 51 59 60 60 63 72 73 73 72 73 73 75 74 74 76 79 76 80 81 78 75 74 75 76 76 74 75 76 69 68 70 69 64 67 69 66 63 59 59
42 44 42 44 49 52 55 57 60 64 62 65 78 76 75 74 74 75 74 76 78 77 77 81 79 77 76 76 75 75 78 76 74 68 70 71 69 67 65 66 66 64 62 61
46 43 38 39 49 49 50 55 58 63 63 61 64 77 77 77 76 77 75 76 77 77 76 77 79 78 77 78 76 77 80 77 72 68 70 71 68 66 68 65 60 46 47 51
MSLP
1003.86 1004.50 1003.58 1003.69 1003.77 1003.93 1004.03 1003.50 1002.62 1001.25 1000.22 1000.45 1000.00 999.54 999.51 999.39 999.85 1000.40 1000.76 1001.01 1001.20 1002.27 1003.00 1003.79 1004.79 1005.47 1006.17 1006.76 1007.52 1008.22 1008.70 1008.90 1009.08 1009.28 1009.47 1009.41 1009.35 1009.14 1009.05 1009.04 1008.91 1008.85 1008.84 1008.90
1003.98 1002.23 1002.99 1003.37 1003.26 1003.20 1003.09 1002.86 1001.99 1001.10 1000.09 999.69 999.50 999.66 999.21 999.16 999.44 999.60 999.98 1000.24 1000.99 1002.26 1003.52 1004.23 1004.88 1005.55 1006.11 1006.66 1007.25 1008.00 1008.49 1008.67 1008.84 1008.99 1009.01 1008.87 1008.87 1008.83 1008.70 1008.70 1008.67 1008.38 1008.36 1008.49
1001.90 1001.23 1002.60 1002.41 1002.31 1002.29 1001.93 1001.89 1001.56 1001.20 1000.01 999.27 999.25 999.26 999.15 998.79 998.65 998.75 998.95 999.16 1000.54 1001.76 1003.08 1004.19 1004.83 1005.47 1006.14 1006.64 1007.04 1007.75 1008.20 1008.46 1008.51 1008.67 1008.67 1008.82 1008.77 1008.78 1008.73 1008.64 1008.59 1008.48 1008.32 1008.41
1001.04 1001.22 1001.05 1001.10 1000.92 1001.17 1000.82 1000.59 1000.72 1000.49 1000.34 1000.38 999.49 1000.13 999.88 999.37 999.00 998.64 998.54 999.38 1000.50 1001.65 1002.68 1003.67 1004.54 1005.35 1005.95 1006.47 1006.84 1007.45 1007.98 1008.18 1008.34 1008.40 1008.71 1008.81 1008.98 1009.09 1008.63 1008.47 1008.52 1008.57 1008.52 1008.65
998.83 999.50 999.70 999.53 999.43 999.62 999.25 999.41 999.61 999.90 1000.25 1000.38 1000.04 1000.79 999.83 999.51 999.15 998.53 998.75 999.32 1000.13 1001.01 1002.05 1003.31 1004.25 1005.02 1005.77 1006.23 1006.79 1007.39 1007.79 1008.01 1008.16 1008.22 1008.27 1008.58 1008.78 1008.74 1008.45 1008.46 1008.65 1008.63 1008.75 1008.70
998.77 998.75 998.68 998.40 998.30 998.20 998.14 998.73 999.19 999.75 1000.33 1000.66 1000.66 1000.89 999.83 999.52 998.71 998.44 998.24 998.95 999.93 1001.03 1002.21 1003.36 1004.22 1004.97 1005.68 1006.20 1006.77 1007.23 1007.74 1007.98 1007.94 1008.09 1008.08 1008.55 1008.73 1008.65 1008.70 1008.77 1008.88 1008.95 1008.91 1008.84
998.09 997.36 997.37 997.07 997.19 997.22 997.51 998.44 999.80 1000.58 1001.01 1000.77 1000.56 1000.75 999.25 998.15 997.85 997.79 998.38 999.02 1000.11 1001.07 1002.25 1003.37 1004.23 1005.08 1005.68 1006.39 1006.83 1007.19 1007.65 1007.89 1007.90 1007.97 1008.14 1008.52 1008.76 1008.81 1008.98 1009.06 1009.05 1009.14 1009.26 1009.22
996.91 996.33 995.70 995.15 995.17 995.73 996.50 997.68 998.97 1000.63 1001.34 1001.22 1000.42 1000.05 997.76 997.34 997.34 997.19 998.06 999.11 1000.22 1001.41 1002.30 1003.26 1004.17 1005.00 1005.68 1006.29 1006.80 1007.07 1007.51 1007.79 1007.74 1007.93 1008.12 1008.33 1008.53 1008.75 1008.96 1009.07 1009.10 1009.20 1009.41 1009.43
995.47 994.43 993.77 993.92 994.21 994.81 995.45 996.09 997.37 999.41 1000.56 1001.24 1000.15 998.09 996.79 996.82 996.98 997.61 998.65 999.54 1000.86 1001.72 1002.66 1003.35 1004.22 1004.89 1005.56 1006.20 1006.72 1006.97 1007.36 1007.49 1007.69 1007.80 1007.89 1008.35 1008.37 1008.52 1008.86 1009.18 1009.32 1009.39 1009.43 1009.54
994.07 994.59 993.36 992.90 993.56 993.41 993.86 995.05 996.99 998.94 1001.01 1001.33 1000.13 998.77 997.71 997.32 997.36 997.86 999.19 999.95 1001.01 1001.74 1002.62 1003.26 1004.04 1004.75 1005.39 1005.98 1006.38 1006.74 1007.04 1007.31 1007.54 1007.68 1007.69 1008.07 1008.16 1008.25 1008.57 1008.97 1009.32 1009.46 1009.49 1009.65
994.26 994.21 992.79 993.08 992.11 992.30 993.17 994.57 996.02 998.14 999.84 1000.59 1000.41 998.69 996.42 996.66 997.00 997.93 998.80 999.63 1000.54 1001.46 1002.40 1003.15 1003.96 1004.53 1005.20 1005.77 1006.19 1006.62 1006.90 1007.13 1007.46 1007.64 1007.65 1007.76 1007.99 1008.35 1008.46 1008.83 1009.23 1009.42 1009.45 1009.62
992.70 993.64 993.44 991.83 991.03 991.50 992.51 993.83 995.29 997.59 999.26 999.78 999.78 998.19 995.75 996.00 996.49 997.34 998.49 999.40 1000.25 1001.07 1001.95 1002.85 1003.67 1004.36 1005.06 1005.70 1006.21 1006.53 1006.77 1007.11 1007.32 1007.55 1007.67 1007.70 1008.01 1008.31 1008.67 1008.87 1009.14 1009.27 1009.43 1009.62
992.19 993.03 993.09 991.97 991.49 990.91 991.61 992.47 994.39 996.01 997.78 998.70 998.86 998.05 996.08 995.97 996.47 997.06 998.19 999.06 1000.01 1001.07 1001.93 1002.69 1003.45 1004.28 1004.82 1005.33 1005.93 1006.34 1006.58 1006.94 1007.13 1007.51 1007.73 1007.89 1008.26 1008.65 1008.89 1008.91 1009.21 1009.30 1009.43 1009.71
991.06 991.77 992.21 991.25 990.32 990.22 990.83 991.93 993.36 994.98 996.36 997.29 997.16 996.86 996.37 996.08 996.43 997.10 997.80 998.61 999.45 1000.42 1001.47 1002.32 1003.06 1003.80 1004.40 1004.88 1005.58 1006.12 1006.36 1006.65 1007.01 1007.43 1007.77 1008.12 1008.35 1008.61 1008.82 1008.74 1009.20 1009.41 1009.59 1009.91
991.01 991.36 991.42 991.26 990.21 989.78 989.89 990.86 992.07 993.16 994.84 995.52 995.92 995.70 995.60 995.36 995.41 996.10 996.92 998.06 999.05 999.90 1000.83 1001.78 1002.56 1003.25 1003.93 1004.48 1005.09 1005.64 1006.01 1006.44 1006.86 1007.41 1007.78 1008.15 1008.37 1008.33 1008.54 1009.21 1009.22 1009.43 1009.68 1009.96
993.37 991.39 991.33 990.70 989.99 989.71 989.24 989.77 990.62 991.73 993.05 993.78 994.35 994.68 994.70 994.44 994.41 995.32 996.28 997.34 998.22 998.92 999.89 1000.80 1001.77 1002.55 1003.29 1003.89 1004.52 1005.22 1005.68 1006.19 1006.66 1007.32 1007.74 1008.04 1008.24 1008.44 1008.57 1009.08 1009.24 1009.58 1009.78 1010.12
995.55 992.43 991.38 991.05 990.25 989.79 989.26 988.41 989.26 990.34 991.33 992.20 992.97 993.47 993.45 993.75 994.03 994.86 995.69 996.41 997.14 997.71 998.63 999.79 1000.71 1001.53 1002.41 1003.18 1003.89 1004.71 1005.27 1005.75 1006.42 1007.16 1007.58 1007.90 1008.23 1008.53 1008.79 1008.92 1009.39 1009.95 1010.29 1010.48
995.31 993.90 991.59 991.16 990.90 989.39 988.37 988.03 988.88 989.49 990.42 991.21 991.78 992.42 992.88 992.94 993.01 993.78 994.25 995.08 995.96 996.64 997.55 998.57 999.73 1000.70 1001.56 1002.44 1003.33 1003.96 1004.71 1005.42 1006.05 1006.93 1007.31 1007.73 1008.16 1008.57 1008.94 1009.30 1009.68 1010.14 1010.53 1010.89
994.63 994.69 992.58 991.18 990.45 989.46 987.87 987.46 987.52 988.69 989.87 990.07 991.00 991.45 992.02 992.21 993.17 993.72 993.36 993.80 994.57 995.37 996.41 997.42 998.51 999.71 1000.63 1001.71 1002.64 1003.55 1004.42 1005.06 1005.68 1006.45 1006.90 1007.36 1007.91 1008.44 1008.96 1009.51 1009.90 1010.29 1010.80 1011.25
993.48 993.41 992.99 991.72 991.26 989.56 988.50 987.44 987.23 987.83 989.41 989.30 990.01 990.78 991.27 991.86 992.78 992.93 992.93 993.12 993.88 994.56 995.54 996.85 997.92 999.05 1000.01 1000.86 1001.83 1002.99 1003.96 1004.68 1005.32 1005.80 1006.35 1006.83 1007.43 1008.10 1008.76 1009.42 1009.88 1010.21 1010.55 1011.08
994.32 993.61 993.63 992.21 991.77 990.07 988.58 987.71 987.39 988.38 988.88 988.80 989.17 989.99 990.74 991.46 991.79 991.94 991.85 992.50 992.99 993.88 995.06 996.16 997.24 998.45 999.37 1000.26 1001.21 1002.32 1003.30 1003.98 1004.44 1004.98 1005.77 1006.34 1006.88 1007.62 1008.28 1009.11 1009.62 1010.20 1010.73 1011.03
998.71 996.65 994.94 993.92 993.04 991.74 989.86 988.92 988.81 988.50 988.13 988.08 988.68 989.23 990.02 990.58 990.95 991.51 991.68 992.21 992.70 993.66 994.71 995.65 996.87 998.04 998.98 999.71 1000.59 1001.62 1002.59 1003.18 1003.73 1004.33 1005.10 1005.85 1006.40 1007.02 1007.89 1008.71 1009.44 1009.96 1010.59 1011.11
1001.02 1000.07 998.56 997.59 994.75 993.63 992.85 993.07 990.06 988.08 987.92 988.10 988.61 988.97 989.34 990.18 990.79 991.28 991.95 992.19 992.59 993.19 994.28 995.26 996.25 997.57 998.55 999.17 999.89 1000.97 1001.76 1002.57 1003.21 1003.84 1004.57 1005.29 1006.05 1006.75 1007.53 1008.37 1009.15 1009.81 1010.28 1010.92
1002.61 1001.38 999.73 998.46 995.46 996.16 995.05 994.21 992.27 991.24 989.50 988.55 988.46 988.81 989.04 989.91 990.47 991.18 991.58 991.79 992.42 992.99 993.92 994.81 995.94 997.10 998.15 998.87 999.35 1000.04 1001.05 1001.76 1002.58 1003.47 1004.26 1004.85 1005.71 1006.53 1007.25 1007.89 1008.62 1009.38 1010.03 1010.65
1002.56 1002.83 1001.60 999.35 998.44 996.68 996.51 995.87 994.42 993.31 992.10 990.55 988.88 988.69 989.01 989.64 990.23 990.82 991.48 991.64 992.08 992.76 993.43 994.28 995.27 996.34 997.25 998.20 998.96 999.56 1000.25 1001.09 1002.00 1002.91 1003.79 1004.40 1005.23 1006.03 1006.95 1007.49 1008.05 1008.81 1009.36 1009.74
1003.17 1002.29 1001.96 1000.85 1000.64 1000.37 999.23 998.10 997.05 995.56 993.97 993.33 991.83 989.63 989.04 989.29 989.88 990.12 990.88 991.17 991.66 992.30 992.94 993.97 994.69 995.64 996.59 997.46 998.23 998.97 999.68 1000.41 1001.40 1002.56 1003.33 1003.94 1004.79 1005.62 1006.30 1007.18 1008.31 1008.87 1008.84 1008.99
Wind_Speed
9 7 18 21 20 12 14 14 19 23 21 22 5 20 10 10 8 8 9 8 8 11 10 14 13 12 10 9 9 7 5 5 3 2 1 1 2 2 2 4 6 7 5 6
13 25 18 18 15 16 17 19 24 23 21 10 17 18 9 8 7 9 11 10 6 8 12 11 11 8 8 9 9 7 6 5 3 1 2 2 2 3 2 3 3 3 5 5
24 8 19 18 18 19 20 20 21 20 22 18 5 7 4 5 8 9 12 8 14 20 15 12 12 10 9 9 8 7 6 6 2 2 3 2 2 3 2 2 1 2 2 3
19 18 18 23 22 22 21 20 23 23 17 8 2 6 4 6 9 9 7 10 14 16 13 14 12 10 9 7 8 6 7 5 3 2 3 2 2 2 2 1 1 1 2 3
21 25 25 24 24 25 21 18 22 22 16 5 3 2 5 6 10 17 8 12 15 16 18 16 13 11 8 8 7 7 7 5 5 3 3 2 3 2 2 2 4 3 2 1
23 13 22 29 24 26 24 16 18 12 5 2 6 7 7 8 8 5 7 10 14 11 14 13 12 11 8 7 8 7 6 4 4 4 1 7 6 5 4 3 4 3 1 1
21 28 26 23 23 23 19 12 7 4 1 8 6 4 10 10 9 8 8 8 11 13 15 15 14 11 8 9 8 7 6 5 4 2 5 7 6 6 6 4 3 4 2 2
16 17 30 24 28 23 16 14 8 9 4 7 7 10 19 12 10 11 11 11 13 12 13 13 13 11 9 9 9 8 7 5 4 4 4 6 6 4 4 3 2 4 3 2
19 20 14 28 22 22 21 11 13 6 2 2 6 8 5 7 9 9 13 13 11 10 11 12 12 10 9 9 9 8 7 7 4 6 3 6 6 5 5 5 3 3 4 2
11 7 22 21 20 23 23 7 6 2 7 6 6 7 5 9 10 7 13 12 10 10 11 11 12 10 8 8 7 6 7 8 7 6 4 6 6 6 5 5 5 4 4 3
19 6 10 21 23 25 12 5 5 8 7 6 3 9 8 11 9 15 15 14 15 14 12 11 10 9 9 8 8 6 6 7 6 5 4 5 5 6 5 5 6 4 3 5
28 7 12 17 17 22 10 9 9 9 6 5 6 8 6 11 11 11 15 13 10 12 11 12 11 10 10 9 8 7 5 7 7 6 4 4 6 6 5 5 6 5 5 5
24 19 3 13 9 17 16 14 8 8 7 9 5 7 4 8 11 16 14 14 13 11 10 11 12 10 10 8 8 7 6 7 7 7 6 4 6 7 5 6 6 6 6 5
27 12 21 9 10 17 13 20 16 9 7 6 9 7 4 8 11 14 14 14 15 13 12 11 13 9 10 8 10 8 7 7 7 8 7 6 6 6 6 6 7 6 6 7
16 25 12 24 22 10 24 22 20 17 9 13 7 6 14 12 11 18 16 15 15 14 12 12 13 10 9 9 8 8 7 7 8 8 8 6 6 5 5 6 6 7 6 6
12 18 20 11 20 18 23 23 20 19 10 9 11 9 10 10 9 13 20 19 18 16 16 14 14 13 12 12 9 10 8 8 9 9 8 7 4 4 6 9 5 7 6 7
8 5 15 16 10 11 14 25 24 20 10 13 15 7 6 7 12 20 19 19 20 18 19 17 16 16 13 13 10 10 8 8 9 10 9 7 5 5 6 6 6 7 7 7
13 10 8 12 9 12 10 17 20 20 16 10 10 14 10 8 7 21 18 20 20 19 19 18 15 14 13 13 9 9 9 9 9 10 10 9 7 7 7 6 7 8 6 7
16 7 5 9 17 4 2 13 21 11 10 12 11 14 13 10 9 11 19 16 17 20 17 17 16 15 13 16 11 11 10 10 9 8 11 12 8 8 7 8 8 5 7 5
12 12 3 3 9 12 5 9 11 8 7 10 11 10 10 10 6 6 10 16 12 16 16 15 16 15 16 16 14 13 11 11 10 8 12 12 9 9 8 8 8 5 4 5
4 2 8 2 6 3 1 7 6 13 11 8 11 9 9 8 8 8 7 14 17 16 17 18 18 18 17 15 15 15 10 13 11 9 11 11 9 11 9 10 6 6 5 4
7 6 1 2 7 3 5 12 2 9 2 7 7 9 10 8 8 4 8 16 17 15 16 20 17 15 14 16 16 15 11 10 10 8 11 11 9 11 9 12 7 7 7 6
2 8 5 5 2 12 23 23 18 2 8 6 6 6 11 10 7 8 7 15 15 15 17 17 17 16 14 16 17 15 12 11 11 8 10 11 10 9 11 11 8 5 6 5
11 11 4 10 13 25 16 24 27 23 9 4 4 7 10 10 9 7 8 10 13 9 15 17 17 17 15 14 16 16 13 12 12 8 10 12 12 9 10 9 8 7 5 5
2 7 10 7 15 20 14 25 29 25 22 26 4 4 9 11 10 9 7 9 9 9 9 18 18 17 18 15 14 14 15 12 11 8 12 13 10 11 10 9 9 7 6 8
4 5 2 5 15 3 16 22 28 25 17 18 22 8 2 10 10 8 10 9 8 8 8 12 17 17 16 17 15 15 15 13 11 10 11 11 10 8 10 8 4 10 3 14
Wind_Direction
199 210 228 223 231 228 242 248 249 254 257 250 274 271 218 209 207 226 240 241 218 160 155 138 142 140 138 138 142 162 179 213 181 287 245 208 250 238 213 221 226 226 217 236
221 223 221 232 232 241 228 249 261 274 277 264 214 245 236 205 206 216 227 243 196 117 136 141 137 135 142 148 155 177 186 209 199 229 235 172 200 243 192 206 241 267 235 202
216 222 216 228 230 239 238 231 250 258 275 285 289 321 297 237 229 258 245 212 140 150 152 153 149 147 147 154 162 175 192 164 157 309 17 40 10 346 20 279 236 290 76 159
235 218 221 214 228 225 239 223 236 249 258 251 104 274 303 301 288 280 254 133 148 155 155 153 154 148 154 165 161 166 158 157 170 83 58 73 125 264 256 208 62 142 111 208
209 207 213 227 216 228 240 224 230 240 248 223 278 298 254 277 284 287 172 155 161 162 156 160 154 147 152 153 163 152 147 152 153 163 169 116 36 303 313 70 87 91 39 22
223 231 212 230 232 224 231 232 240 243 190 272 211 178 264 232 238 199 169 162 162 145 142 137 141 141 149 149 145 142 152 174 183 193 167 91 74 27 49 60 80 69 66 335
219 222 236 237 230 237 221 217 244 329 358 225 215 279 235 260 229 164 130 126 137 134 137 143 148 147 145 148 151 151 154 168 211 208 99 110 97 81 80 71 70 63 63 58
207 225 214 218 228 230 223 195 172 199 167 250 242 238 249 219 165 120 128 126 124 130 141 144 141 144 145 150 153 165 169 165 210 150 115 130 116 120 108 89 62 92 99 118
193 229 182 219 223 218 241 202 180 137 213 249 238 276 223 159 126 126 128 123 129 133 138 141 140 146 147 150 163 173 169 180 172 134 156 139 136 139 140 123 92 87 106 116
249 227 230 211 219 241 210 174 133 70 190 264 292 306 225 151 172 160 135 135 137 139 141 143 145 147 150 154 167 171 165 166 161 155 188 148 155 154 150 143 131 97 137 112
214 216 236 214 207 215 216 172 121 129 148 174 232 268 205 176 162 145 149 150 150 152 148 146 146 146 148 150 156 167 157 155 146 130 143 133 157 136 118 115 120 129 127 132
208 200 239 231 213 201 188 159 148 167 229 224 175 272 140 140 152 133 146 148 146 150 145 146 146 143 146 155 159 169 176 154 159 156 135 118 109 114 107 109 132 129 111 124
194 224 254 243 276 195 182 178 146 139 135 211 163 251 198 138 126 134 138 150 146 141 141 149 147 152 158 159 160 173 178 169 164 137 130 106 112 117 126 128 123 123 115 101
175 194 214 221 208 187 171 181 187 151 175 181 213 237 196 147 143 146 151 151 152 154 157 158 154 159 159 164 160 171 187 166 151 136 129 116 135 136 154 147 128 124 121 117
191 202 193 226 250 202 183 180 186 201 171 184 220 228 181 179 175 163 159 150 155 157 158 163 162 163 159 165 159 166 179 160 141 137 135 147 157 185 173 116 135 128 123 134
321 208 199 224 230 242 190 187 189 207 184 180 174 228 187 216 194 137 157 162 165 167 169 165 164 164 162 169 165 164 172 162 135 142 147 150 153 157 114 127 154 135 137 104
282 298 180 214 235 232 236 188 193 206 202 177 198 180 255 174 192 155 158 165 171 176 169 166 169 170 165 168 162 163 164 153 136 148 151 150 173 144 128 124 114 119 127 110
258 313 206 192 203 233 222 194 197 200 199 202 167 183 213 211 186 160 165 167 177 176 170 169 168 164 161 162 158 157 148 152 146 155 155 158 171 152 141 124 103 90 115 122
220 229 280 168 201 309 241 199 191 186 216 193 178 185 191 213 127 178 172 177 171 172 170 170 165 162 154 162 159 154 150 151 157 157 160 165 164 160 152 139 136 124 116 122
201 204 155 155 144 203 222 250 173 113 208 187 160 180 161 167 163 220 183 169 159 160 162 157 156 158 157 165 154 156 157 157 167 175 170 168 159 163 158 151 148 143 134 131
255 163 196 150 105 353 336 278 150 177 219 180 164 171 159 156 171 207 179 156 155 157 153 154 152 161 167 162 156 163 157 171 174 176 163 170 155 166 155 152 143 145 148 162
332 305 154 85 83 73 349 301 234 199 156 104 140 157 150 147 159 161 136 158 151 148 146 155 154 161 165 162 162 165 167 174 171 174 158 167 157 166 149 150 147 154 150 174
11 355 320 352 31 2 14 1 332 162 123 118 129 165 146 140 158 147 169 153 158 149 152 159 158 159 166 166 167 168 177 165 173 171 156 160 158 141 149 151 151 151 155 164
324 354 357 319 351 2 20 344 350 358 2 62 121 163 144 152 158 158 154 141 154 142 150 160 153 159 167 171 171 170 169 166 171 168 157 157 154 142 153 156 159 159 164 168
301 318 309 288 6 349 356 342 343 347 348 1 12 120 152 150 168 160 166 147 145 146 147 157 161 166 173 169 170 166 170 165 172 151 159 160 152 152 154 160 166 166 186 169
219 234 351 340 325 278 307 322 324 340 341 353 353 311 199 157 178 173 154 153 142 143 138 143 163 164 169 172 167 170 174 172 165 150 159 165 156 156 160 152 131 46 351 194